Weather History for Moncks Corner, SC

Change the Weather History Date:

Saturday, April 20, 2013

  Actual Average (KCHS) Record (KCHS)
Temperature  
Mean Temperature 58 °F 66 °F  
Max Temperature 68 °F 77 °F 95 °F (2002)
Min Temperature 46 °F 54 °F 31 °F (1983)
Degree Days  
Heating Degree Days 7 2  
Month to date heating degree days 72  
Since 1 July heating degree days 1947  
Cooling Degree Days 0 3  
Month to date cooling degree days 46  
Year to date cooling degree days 80  
Growing Degree Days 8 (Base 50)    
Moisture  
Dew Point 48 °F    
Average Humidity 75    
Maximum Humidity 94    
Minimum Humidity 42    
Precipitation  
Precipitation 0.38 in 0.09 in 1.68 in (1966)
Month to date precipitation 1.95  
Year to date precipitation 12.33  
Sea Level Pressure  
Sea Level Pressure 30.10 in    
Wind  
Wind Speed 5 mph (NNW)    
Max Wind Speed 14 mph    
Max Gust Speed 18 mph    
Visibility 8 miles    
Events Rain    
T = Trace of Precipitation, MM = Missing Value Source: NWS Daily Summary

Daily Weather History Graph

Daily Weather History Graph

Search for Another Location

Airport:

Trip Planner

Search our weather history database for the weather conditions in past years. The results will help you decide how hot, cold, wet, or windy it might be!

Date:

Astronomy

Apr. 20, 2013 Rise Set
Actual Time 6:43 AM EDT 7:54 PM EDT
Civil Twilight 6:18 AM EDT 8:20 PM EDT
Nautical Twilight 5:47 AM EDT 8:51 PM EDT
Astronomical Twilight 5:15 AM EDT 9:22 PM EDT
Moon 2:52 PM EDT (4/20) 3:15 AM EDT (4/20)
Length of Visible Light 14h 02m
Length of Day
13h 10m
Waxing Gibbous, 71% of the Moon is Illuminated
Apr 20
Waxing Gibbous
Apr 25
Full
May 2
Last Quarter
May 9
New
May 18
First Quarter

Hourly Weather History & Observations

Time (EDT) Temp. Dew Point Humidity Pressure Visibility Wind Dir Wind Speed Gust Speed Precip Events Conditions
12:15 AM 68.0 °F 64.4 °F 88% 29.94 in 10.0 mi West 8.1 mph - N/A   Overcast
12:35 AM 66.2 °F 60.8 °F 83% 29.94 in 10.0 mi West 6.9 mph - N/A Rain Light Rain
12:55 AM 64.4 °F 59.0 °F 83% 29.94 in 10.0 mi West 4.6 mph - N/A   Overcast
1:15 AM 64.4 °F 60.8 °F 88% 29.95 in 10.0 mi West 4.6 mph - N/A   Overcast
1:35 AM 62.6 °F 59.0 °F 88% 29.97 in 10.0 mi WSW 5.8 mph - 0.02 in Rain Light Rain
1:55 AM 60.8 °F 59.0 °F 94% 29.97 in 5.0 mi WSW 4.6 mph - 0.07 in Rain Heavy Rain
2:35 AM 59.0 °F 57.2 °F 94% 29.97 in 5.0 mi West 3.5 mph - 0.21 in Rain Rain
2:55 AM 59.0 °F 57.2 °F 94% 29.96 in 10.0 mi West 5.8 mph - 0.25 in Rain Rain
3:15 AM 57.2 °F 55.4 °F 94% 29.97 in 10.0 mi WNW 5.8 mph - N/A Rain Light Rain
3:35 AM 55.4 °F 50.0 °F 82% 29.97 in 10.0 mi West 5.8 mph - N/A   Overcast
3:55 AM 53.6 °F 50.0 °F 88% 29.98 in 10.0 mi WSW 4.6 mph - N/A Rain Light Rain
4:15 AM 53.6 °F 50.0 °F 88% 29.98 in 10.0 mi West 3.5 mph - 0.01 in Rain Light Rain
4:35 AM 51.8 °F 50.0 °F 94% 29.99 in 10.0 mi Calm Calm - 0.02 in Rain Light Rain
4:55 AM 51.8 °F 50.0 °F 94% 29.98 in 10.0 mi West 3.5 mph - 0.03 in Rain Light Rain
5:15 AM 51.8 °F 50.0 °F 94% 29.98 in 10.0 mi Calm Calm - 0.01 in Rain Light Rain
5:35 AM 51.8 °F 50.0 °F 94% 29.99 in 10.0 mi WNW 3.5 mph - 0.01 in   Drizzle
6:15 AM 51.8 °F 50.0 °F 94% 30.02 in 10.0 mi Calm Calm - 0.02 in Rain Light Rain
6:35 AM 51.8 °F 50.0 °F 94% 30.02 in 10.0 mi Calm Calm - 0.02 in Rain Light Rain
6:55 AM 51.8 °F 50.0 °F 94% 30.03 in 10.0 mi Calm Calm - 0.02 in   Overcast
7:15 AM 51.8 °F 50.0 °F 94% 30.04 in 7.0 mi Calm Calm - N/A   Overcast
7:35 AM 51.8 °F 50.0 °F 94% 30.05 in 7.0 mi Calm Calm - N/A   Overcast
7:55 AM 51.8 °F 50.0 °F 94% 30.05 in 7.0 mi Calm Calm - N/A   Overcast
8:15 AM 51.8 °F 50.0 °F 94% 30.06 in 7.0 mi NW 3.5 mph - N/A   Overcast
8:35 AM 53.6 °F 50.0 °F 88% 30.08 in 7.0 mi WNW 3.5 mph - N/A   Overcast
8:55 AM 53.6 °F 50.0 °F 88% 30.09 in 7.0 mi WNW 3.5 mph - N/A   Overcast
9:15 AM 53.6 °F 51.8 °F 94% 30.08 in 7.0 mi NNW 3.5 mph - N/A   Overcast
9:35 AM 55.4 °F 50.0 °F 82% 30.10 in 10.0 mi North 9.2 mph - N/A   Mostly Cloudy
9:55 AM 55.4 °F 50.0 °F 82% 30.10 in 10.0 mi North 10.4 mph - N/A   Mostly Cloudy
10:15 AM 57.2 °F 50.0 °F 77% 30.11 in 7.0 mi North 11.5 mph - N/A   Scattered Clouds
10:35 AM 57.2 °F 48.2 °F 72% 30.11 in 7.0 mi NNE 9.2 mph - N/A   Scattered Clouds
10:55 AM 57.2 °F 48.2 °F 72% 30.12 in 7.0 mi NNE 12.7 mph 18.4 mph N/A   Clear
11:15 AM 59.0 °F 48.2 °F 67% 30.14 in 7.0 mi NNE 8.1 mph - N/A   Clear
11:35 AM 59.0 °F 44.6 °F 59% 30.14 in 7.0 mi NE 13.8 mph 17.3 mph N/A   Clear
11:55 AM 59.0 °F 44.6 °F 59% 30.15 in 7.0 mi NNE 9.2 mph - N/A   Clear
12:15 PM 59.0 °F 44.6 °F 59% 30.15 in 7.0 mi NNE 8.1 mph - N/A   Clear
12:35 PM 59.0 °F 44.6 °F 59% 30.15 in 7.0 mi North 6.9 mph - N/A   Clear
12:55 PM 59.0 °F 44.6 °F 59% 30.15 in 7.0 mi NNE 6.9 mph - N/A   Clear
1:15 PM 59.0 °F 46.4 °F 63% 30.16 in 5.0 mi North 5.8 mph - N/A   Haze
1:35 PM 59.0 °F 44.6 °F 59% 30.16 in 7.0 mi NE 6.9 mph - N/A   Clear
1:55 PM 59.0 °F 44.6 °F 59% 30.15 in 7.0 mi North 5.8 mph - N/A   Clear
2:15 PM 60.8 °F 41.0 °F 48% 30.15 in 7.0 mi North 9.2 mph - N/A   Clear
2:35 PM 59.0 °F 42.8 °F 55% 30.15 in 7.0 mi North 8.1 mph - N/A   Clear
2:55 PM 59.0 °F 39.2 °F 48% 30.14 in 10.0 mi North 5.8 mph 16.1 mph N/A   Clear
3:15 PM 60.8 °F 39.2 °F 45% 30.15 in 10.0 mi NNE 5.8 mph - N/A   Clear
3:35 PM 60.8 °F 41.0 °F 48% 30.16 in 7.0 mi NNE 6.9 mph - N/A   Clear
3:55 PM 60.8 °F 39.2 °F 45% 30.15 in 10.0 mi North 3.5 mph - N/A   Clear
4:15 PM 60.8 °F 39.2 °F 45% 30.15 in 7.0 mi North 4.6 mph - N/A   Clear
4:35 PM 60.8 °F 39.2 °F 45% 30.14 in 10.0 mi NNE 6.9 mph - N/A   Clear
4:55 PM 59.0 °F 39.2 °F 48% 30.13 in 10.0 mi North 5.8 mph - N/A   Clear
5:15 PM 60.8 °F 37.4 °F 42% 30.14 in 10.0 mi North 3.5 mph - N/A   Clear
5:35 PM 59.0 °F 39.2 °F 48% 30.15 in 7.0 mi NNE 4.6 mph - N/A   Clear
5:55 PM 60.8 °F 41.0 °F 48% 30.15 in 7.0 mi NNE 3.5 mph - N/A   Clear
6:15 PM 60.8 °F 41.0 °F 48% 30.16 in 7.0 mi East 4.6 mph - N/A   Clear
6:55 PM 59.0 °F 41.0 °F 51% 30.15 in 10.0 mi ENE 4.6 mph - N/A   Scattered Clouds
7:15 PM 59.0 °F 42.8 °F 55% 30.15 in 10.0 mi ENE 3.5 mph - N/A   Clear
7:35 PM 59.0 °F 42.8 °F 55% 30.17 in 7.0 mi Calm Calm - N/A   Clear
7:55 PM 59.0 °F 42.8 °F 55% 30.17 in 7.0 mi Calm Calm - N/A   Clear
8:15 PM 57.2 °F 44.6 °F 63% 30.18 in 7.0 mi Calm Calm - N/A   Clear
8:35 PM 53.6 °F 48.2 °F 82% 30.19 in 10.0 mi Calm Calm - N/A   Clear
8:55 PM 51.8 °F 48.2 °F 88% 30.20 in 10.0 mi Calm Calm - N/A   Clear
9:35 PM 50.0 °F 46.4 °F 87% 30.22 in 10.0 mi Calm Calm - N/A   Clear
9:55 PM 50.0 °F 46.4 °F 87% 30.23 in 10.0 mi Calm Calm - N/A   Clear
10:15 PM 48.2 °F 46.4 °F 93% 30.24 in 7.0 mi Calm Calm - N/A   Clear
10:35 PM 48.2 °F 46.4 °F 93% 30.24 in 7.0 mi Calm Calm - N/A   Clear
11:15 PM 48.2 °F 46.4 °F 93% 30.25 in 7.0 mi Calm Calm - N/A   Clear
11:35 PM 48.2 °F 46.4 °F 93% 30.25 in 7.0 mi Calm Calm - N/A   Clear
11:55 PM 46.4 °F 44.6 °F 93% 30.25 in 7.0 mi Calm Calm - N/A   Clear